TimeEST,TemperatureF,Dew PointF,Humidity,Sea Level PressureIn,VisibilityMPH,Wind Direction,Wind SpeedMPH,Gust SpeedMPH,PrecipitationIn,Events,Conditions,WindDirDegrees,DateUTC
12:15 AM,40.1,28.6,63,30.19,10.0,South,6.9,-,N/A,,Overcast,180,2013-02-11 05:15:00
12:35 AM,40.1,29.3,65,30.17,10.0,South,3.5,-,N/A,,Overcast,180,2013-02-11 05:35:00
12:55 AM,40.3,29.3,65,30.17,10.0,South,4.6,-,N/A,,Overcast,190,2013-02-11 05:55:00
1:15 AM,40.1,30.0,67,30.16,10.0,SSE,4.6,-,N/A,,Overcast,160,2013-02-11 06:15:00
1:35 AM,40.1,30.9,70,30.14,10.0,SSE,3.5,-,N/A,,Overcast,150,2013-02-11 06:35:00
1:55 AM,40.1,31.6,72,30.14,10.0,Calm,Calm,-,N/A,,Overcast,0,2013-02-11 06:55:00
2:15 AM,39.6,32.0,74,30.13,10.0,Calm,Calm,-,N/A,,Overcast,0,2013-02-11 07:15:00
2:35 AM,39.2,32.5,77,30.11,10.0,Calm,Calm,-,N/A,,Overcast,0,2013-02-11 07:35:00
2:55 AM,39.0,32.5,78,30.11,10.0,Calm,Calm,-,N/A,,Overcast,0,2013-02-11 07:55:00
3:15 AM,39.0,32.7,78,30.09,10.0,Calm,Calm,-,N/A,,Overcast,0,2013-02-11 08:15:00
3:35 AM,38.8,33.1,80,30.07,10.0,Calm,Calm,-,N/A,,Overcast,0,2013-02-11 08:35:00
3:55 AM,39.4,33.1,78,30.06,10.0,Calm,Calm,-,N/A,,Overcast,0,2013-02-11 08:55:00
4:15 AM,39.6,33.8,80,30.05,10.0,Calm,Calm,-,N/A,,Overcast,0,2013-02-11 09:15:00
4:35 AM,39.7,33.8,79,30.05,10.0,Calm,Calm,-,N/A,,Overcast,0,2013-02-11 09:35:00
4:55 AM,40.1,34.0,79,30.03,10.0,Calm,Calm,-,N/A,,Overcast,0,2013-02-11 09:55:00
5:15 AM,40.1,34.9,82,30.03,10.0,Calm,Calm,-,N/A,,Overcast,0,2013-02-11 10:15:00
5:35 AM,40.6,35.4,82,30.01,10.0,Calm,Calm,-,N/A,,Overcast,0,2013-02-11 10:35:00
5:55 AM,41.2,36.3,83,30.02,10.0,Calm,Calm,-,N/A,,Overcast,0,2013-02-11 10:55:00
6:15 AM,41.0,36.5,84,30.01,10.0,ESE,3.5,-,N/A,,Overcast,110,2013-02-11 11:15:00
6:35 AM,41.5,37.2,85,30.03,10.0,Calm,Calm,-,N/A,,Overcast,0,2013-02-11 11:35:00
6:55 AM,41.5,37.4,85,30.00,10.0,SE,4.6,-,N/A,,Overcast,130,2013-02-11 11:55:00
7:15 AM,41.9,37.4,84,30.01,10.0,Calm,Calm,-,N/A,,Overcast,0,2013-02-11 12:15:00
7:35 AM,41.9,37.4,84,29.99,10.0,Calm,Calm,-,N/A,,Overcast,0,2013-02-11 12:35:00
7:55 AM,42.1,37.9,85,29.98,10.0,Calm,Calm,-,N/A,,Overcast,0,2013-02-11 12:55:00
8:15 AM,42.8,38.5,85,29.98,10.0,South,4.6,-,N/A,,Overcast,170,2013-02-11 13:15:00
8:35 AM,44.6,39.7,83,29.97,10.0,SSE,3.5,-,N/A,,Mostly Cloudy,150,2013-02-11 13:35:00
8:55 AM,45.3,40.5,83,29.98,10.0,Calm,Calm,-,N/A,,Scattered Clouds,0,2013-02-11 13:55:00
9:15 AM,47.8,42.8,83,29.97,10.0,SW,5.8,-,N/A,,Mostly Cloudy,220,2013-02-11 14:15:00
9:35 AM,51.6,45.0,78,29.97,10.0,SW,9.2,-,N/A,,Scattered Clouds,230,2013-02-11 14:35:00
9:55 AM,52.9,45.7,77,29.96,10.0,SSW,6.9,-,N/A,,Scattered Clouds,200,2013-02-11 14:55:00
10:15 AM,53.6,46.2,76,29.95,10.0,SSW,4.6,-,N/A,,Mostly Cloudy,200,2013-02-11 15:15:00
10:35 AM,56.5,47.7,72,29.94,10.0,SW,9.2,-,N/A,,Mostly Cloudy,230,2013-02-11 15:35:00
10:55 AM,58.3,48.6,70,29.93,10.0,SW,13.8,17.3,N/A,,Scattered Clouds,230,2013-02-11 15:55:00
11:15 AM,58.6,48.6,69,29.92,10.0,SW,11.5,-,N/A,,Scattered Clouds,220,2013-02-11 16:15:00
11:35 AM,59.5,48.6,67,29.91,10.0,SW,13.8,20.7,N/A,,Scattered Clouds,230,2013-02-11 16:35:00
11:55 AM,59.2,48.4,67,29.90,10.0,SW,13.8,23.0,N/A,,Scattered Clouds,230,2013-02-11 16:55:00
12:15 PM,59.7,48.4,66,29.88,10.0,SSW,11.5,17.3,N/A,,Clear,210,2013-02-11 17:15:00
12:35 PM,59.4,48.0,66,29.88,10.0,SSW,15.0,18.4,N/A,,Clear,210,2013-02-11 17:35:00
12:55 PM,59.4,47.8,66,29.88,10.0,SSW,12.7,19.6,N/A,,Clear,210,2013-02-11 17:55:00
1:15 PM,60.1,47.7,64,29.85,10.0,SSW,9.2,-,N/A,,Clear,200,2013-02-11 18:15:00
1:35 PM,62.4,47.8,59,29.84,10.0,SW,15.0,20.7,N/A,,Clear,220,2013-02-11 18:35:00
1:55 PM,63.5,47.7,56,29.83,10.0,SW,15.0,21.9,N/A,,Clear,220,2013-02-11 18:55:00
2:15 PM,64.2,48.0,56,29.81,10.0,SW,16.1,21.9,N/A,,Clear,230,2013-02-11 19:15:00
2:35 PM,63.1,47.8,57,29.81,10.0,SW,13.8,19.6,N/A,,Clear,220,2013-02-11 19:35:00
2:55 PM,63.0,48.0,58,29.81,10.0,SW,15.0,20.7,N/A,,Clear,220,2013-02-11 19:55:00
3:15 PM,62.8,48.0,59,29.81,10.0,SW,13.8,19.6,N/A,,Clear,230,2013-02-11 20:15:00
3:35 PM,62.8,47.5,57,29.81,10.0,SW,16.1,26.5,N/A,,Clear,230,2013-02-11 20:35:00
3:55 PM,62.8,47.1,57,29.80,10.0,SW,15.0,20.7,N/A,,Clear,230,2013-02-11 20:55:00
4:15 PM,63.0,46.2,54,29.80,10.0,WSW,11.5,21.9,N/A,,Clear,240,2013-02-11 21:15:00
4:35 PM,63.1,44.6,51,29.79,10.0,SW,13.8,-,N/A,,Clear,230,2013-02-11 21:35:00
4:55 PM,62.8,43.2,49,29.79,10.0,SW,15.0,19.6,N/A,,Clear,230,2013-02-11 21:55:00
5:55 PM,61.7,36.1,39,29.79,10.0,SW,10.4,16.1,N/A,,Clear,230,2013-02-11 22:55:00
6:15 PM,61.0,35.2,38,29.79,10.0,SW,9.2,-,N/A,,Clear,220,2013-02-11 23:15:00
6:35 PM,60.1,34.7,39,29.79,10.0,SW,9.2,-,N/A,,Clear,220,2013-02-11 23:35:00
6:55 PM,59.4,33.8,38,29.79,10.0,SW,6.9,-,N/A,,Clear,230,2013-02-11 23:55:00
7:15 PM,59.5,29.8,32,29.79,10.0,WSW,8.1,16.1,N/A,,Clear,240,2013-02-12 00:15:00
7:35 PM,58.1,30.4,35,29.80,10.0,SW,6.9,-,N/A,,Clear,220,2013-02-12 00:35:00
7:55 PM,58.8,27.3,30,29.81,10.0,WSW,10.4,-,N/A,,Clear,240,2013-02-12 00:55:00
8:15 PM,58.6,24.3,27,29.82,10.0,WSW,12.7,19.6,N/A,,Clear,240,2013-02-12 01:15:00
8:35 PM,58.1,21.4,24,29.82,10.0,West,15.0,27.6,N/A,,Clear,260,2013-02-12 01:35:00
8:55 PM,57.6,18.9,22,29.83,10.0,WSW,9.2,19.6,N/A,,Clear,240,2013-02-12 01:55:00
9:15 PM,55.4,19.4,25,29.84,10.0,SW,8.1,-,N/A,,Clear,230,2013-02-12 02:15:00
9:35 PM,55.0,18.9,24,29.85,10.0,WSW,8.1,17.3,N/A,,Clear,240,2013-02-12 02:35:00
9:55 PM,54.5,17.6,23,29.86,10.0,SW,11.5,17.3,N/A,,Clear,230,2013-02-12 02:55:00
10:15 PM,54.1,16.0,22,29.86,10.0,WSW,8.1,16.1,N/A,,Clear,240,2013-02-12 03:15:00
10:35 PM,51.4,16.2,25,29.85,10.0,Calm,Calm,-,N/A,,Clear,0,2013-02-12 03:35:00
10:55 PM,52.0,16.5,25,29.87,10.0,West,5.8,-,N/A,,Clear,260,2013-02-12 03:55:00
11:15 PM,51.1,17.6,27,29.88,10.0,Calm,Calm,-,N/A,,Clear,0,2013-02-12 04:15:00
11:35 PM,52.2,17.4,25,29.88,10.0,WSW,5.8,-,N/A,,Clear,240,2013-02-12 04:35:00
11:55 PM,49.6,18.3,29,29.90,10.0,SW,6.9,-,N/A,,Clear,230,2013-02-12 04:55:00